Location: Ay?beleni
(36.6500°N, 30.3000°E)
Time: 03:50:15
(UTC+00:00)

Cosmos 489 Rocket - Pass Details

Date: 16 October 2021
Orbit: 953 x 983 km, 74.0° (Epoch: 08 December)

Event Time Altitude Azimuth Distance (km) Brightness Sun altitude
Rises 17:18:12 0° 342° (NNW) 3,635 7.8 -24.2°
Reaches altitude 10° 17:20:44 10° 342° (NNW) 2,685 7.1 -24.7°
Maximum altitude 17:26:57 89° 71° (ENE) 958 4.3 -26.0°
Enters shadow 17:29:08 43° 162° (SSE) 1,303 4.9 -26.4°
